COSMOS 2251 DEB, 33782

Orbit data source: Space-Track

COSMOS 2251 DEB, 33782 is space debris in LEO originally from a launch on Wed, 16 Jun 1993 UTC launched from the Plesetsk Missile And Space Complex (PKMTR). The debris from Iridium 33, an American commercial communications satellite, has been tracked extensively since its accidental collision with the defunct Russian satellite Cosmos 2251 in 2009. This event, occurring at high speed in low Earth orbit (LEO), generated thousands of pieces of space debris, significantly increasing the risk of further collisions. The Iridium 33 debris cloud has impacted space traffic management and orbital debris mitigation strategies, making it a subject of ongoing study in space situational awareness.

Loading next visibility...
Identifier
33782, 1993-036X
Orbit
LEO
Country
Flag of CISCIS
Related business
Manufacturer
Unknown
Mission
Spacecraft
Bus & Motor
Unknown
Mass
Unknown
Launch date (UTC)
1993-06-16 (33 years ago)
Launch vehicle
Unknown
Launch site
Plesetsk Missile And Space Complex (PKMTR)
Object type
Payload
Rocket body
Debris
Shape & HBR
Unknown shape, 0.1 m
Radar Cross Section
Small (<0.1 m²)

Expand to show TLE details & history
Last TLE update: 5 hours ago

TLE from 5 hours ago
0 COSMOS 2251 DEB
1 33782U 93036X   25354.17663189  .00000806  00000-0  26113-3 0  9994
2 33782  74.0330 263.7927 0021013 327.6323 182.7579 14.40465136882338
Epoch: 2025-12-20T04:14Z
TLE epoch observation values (Epoch: 2025-12-20T04:14:20.995Z)
Latitude
28.42336°
Longitude
-77.66263°
Altitude
775.137 km
Speed
7.461 km/s
True Right ascension
04h 59m 43s
True Declination
28° 16' 48"
Sunlit
Object was in full shadow at epoch
Visualization orbit readout
Latitude
Unknown
Longitude
Unknown
Altitude
Unknown
Speed
Unknown
Apparent Right ascension
Unknown
Apparent Declination
Unknown
Sunlit
N/A
Visualization observer readout
Local Sidereal Time
07:47:47
Azimuth
Unknown
Elevation
Unknown
Doppler factor
Unknown
Orbital elements
Apogee altitude
769.569 km
Perigee altitude
739.593 km
Semi-major axis
7,132.718 km
Eccentricity
0.0021
Inclination
74.033°
RAAN
263.7927°
Arg. of periapsis
327.6323°
True anomaly
182.74634°
Mean anomaly
182.7579°
Eccentric anomaly
182.75212°
Mean motion
3.60297 °/min
Orbital period
99.92 mins
BSTAR
0.00026113
Loading maneuver chart data...
Computing Atmospheric mass density...

Documentation

Showing up to 5 results
|